Regional Weather Roundup
Issued by NWS

Home | Current Version | Previous Version | Text Only | Print | Product List | Glossary Off
Versions: 1 2 3 4 5 6 7 8 9 10 11 12 13 14 15 16 17 18 19 20 21 22 23 24 25 26 27 28 29 30 31 32 33 34 35 36 37 38 39 40 41 42 43 44 45 46 47 48 49 50

000
ASUS44 KMEG 280310
RWRTN
TENNESSEE HOURLY STATE WEATHER ROUNDUP
NATIONAL WEATHER SERVICE MEMPHIS TN
1000 PM CDT WED JUL 27 2016

TNZ002-004-019-021-049-052-054-088>092-280400-
WEST TENNESSEE

CITY           SKY/WX    TMP DP  RH WIND       PRES   REMARKS
MEMPHIS INTL   CLOUDY    78  75  90 S5        29.91R
NWS MEMPHIS      N/A     76 N/A N/A MISG        N/A
JACKSON        CLOUDY    80  75  84 CALM      29.94R
DYERSBURG      CLOUDY    77  73  88 CALM      29.94R
UNION CITY     MOCLDY    72  72 100 NE9       29.94R
PARIS          MOCLDY    72  72 100 N7        29.97R
LEXINGTON      PTCLDY    81  72  74 CALM      29.94R
$$

TNZ008-025-027-028-033-062-065-066-280400-
NORTH MIDDLE TENNESSEE

CITY           SKY/WX    TMP DP  RH WIND       PRES   REMARKS
NASHVILLE      CLOUDY    83  71  67 S3        29.95R
CLARKSVILLE    LGT RAIN  74  71  91 N14G24    29.97R
SMYRNA         MOCLDY    85  72  65 SW8       29.96R HX  91
COOKEVILLE     MOCLDY    79  77  94 CALM      29.98S
CROSSVILLE     PTCLDY    77  70  79 CALM      30.05R
$$

TNZ061-075-076-078-094-096-097-280400-
SOUTH MIDDLE TENNESSEE

CITY           SKY/WX    TMP DP  RH WIND       PRES   REMARKS
FAYETTEVILLE   PTCLDY    79  72  78 S9        29.99F
TULLAHOMA      CLEAR     79  70  73 S12       30.00S
WINCHESTER     CLEAR     81  70  69 S6        30.00S
MCMINNVILLE    CLEAR     81  72  74 SW5       29.99S
COLUMBIA       MOCLDY    82  82 100 S8        29.94S HX  97
SHELBYVILLE    CLEAR     81  73  78 S6        29.98R
$$

TNZ017-018-042-046-047-280400-
NORTHEAST TENNESSEE

CITY           SKY/WX    TMP DP  RH WIND       PRES   REMARKS
TRI CITIES     PTCLDY    75  72  90 N3        30.02R
ELIZABETHTON   PTCLDY    75  72  88 CALM      30.01S
$$

TNZ012-013-036-069-073-074-280400-
CENTRAL EAST TENNESSEE

CITY           SKY/WX    TMP DP  RH WIND       PRES   REMARKS
KNOXVILLE      MOCLDY    84  73  69 S13       29.98R HX  90
OAK RIDGE      CLOUDY    86  70  58 VRB3      29.99S HX  90
GATLINBURG     CLOUDY    84  70  61 SW6       29.98S
MORRISTOWN     MOCLDY    86  72  62 W6G13     30.00R HX  92
$$

TNZ083-085-099-280400-
SOUTHEAST TENNESSEE

CITY           SKY/WX    TMP DP  RH WIND       PRES   REMARKS
CHATTANOOGA    CLEAR     84  69  60 SW8       30.00R
$$

SKY/WX REPORTED AS FAIR MEANS FEW OR NO CLOUDS BELOW
12 THOUSAND FEET.





USA.gov is the U.S. government's official web portal to all federal, state and local government web resources and services.